Regional Weather Roundup
Issued by NWS Huntsville, AL

Home | Current Version | Previous Version | Text Only | Print | Product List | Glossary On
Versions: 1 2 3 4 5 6 7 8 9 10 11 12 13 14 15 16 17 18 19 20 21 22 23 24 25 26 27 28 29 30 31 32 33 34 35 36 37 38 39 40 41 42 43 44 45 46 47 48 49 50
000
ASUS44 KHUN 200824
RWRHUN

WEATHER ROUNDUP FOR THE TENNESSEE VALLEY
NATIONAL WEATHER SERVICE HUNTSVILLE AL
300 AM CDT SUN APR 20 2014

ALZ001>004-200900-
NORTHWEST ALABAMA

CITY           SKY/WX    TMP DP  RH WIND       PRES   REMARKS
COURTLAND HCN    N/A     48 N/A N/A CALM        N/A
RUSSELLVILLE     N/A     45 N/A N/A MISG        N/A
SHOALS AIRPORT CLEAR     47  42  83 CALM      30.17S
SHOALS TVA RES   N/A     50 N/A N/A MISG        N/A
$$

ALZ005>007-016-200900-
NORTH CENTRAL ALABAMA

CITY           SKY/WX    TMP DP  RH WIND       PRES   REMARKS
CULLMAN AG STN   N/A     45 N/A N/A CALM        N/A
DECATUR AP     CLEAR     47  44  90 CALM      30.17S
HUNTSVILLE AP  CLEAR     49  46  90 E5        30.17R
HUN NWS/UAH      N/A     50  44  78 SE1         N/A
MERIDIANVILLE  CLEAR     45  41  87 CALM      30.17S
VINEMONT AP    FAIR      53  43  68 CALM      30.19R
$$

ALZ008>010-200900-
NORTHEAST ALABAMA

CITY           SKY/WX    TMP DP  RH WIND       PRES   REMARKS
ALBERTVILLE    PTCLDY    50  48  93 SE5       30.18S
CROSSVILLE       N/A     48 N/A N/A CALM        N/A
FORT PAYNE     CLEAR     45  41  87 CALM      30.20R
SCOTTSBORO AP  PTCLDY    45  43  93 CALM      30.20R
SCOTTSBORO HCN   N/A     45 N/A N/A MISG        N/A
VALLEY HEAD      N/A     46 N/A N/A MISG        N/A
$$

TNZ076-096-097-200900-
SOUTHEASTERN MIDDLE TENNESSEE

CITY           SKY/WX    TMP DP  RH WIND       PRES   REMARKS
FAYETTEVILLE   FAIR      50  39  65 CALM      30.17S
TULLAHOMA      CLEAR     45  39  81 CALM      30.19R
WINCHESTER     CLEAR     41  39  93 CALM      30.19S
$$

...SURROUNDING SITES...

CITY           SKY/WX    TMP DP  RH WIND       PRES   REMARKS
ATLANTA        PTCLDY    53  42  66 NE15      30.16R
ANNISTON       CLEAR     54  44  69 N5        30.18R
BIRMINGHAM     CLEAR     59  43  55 VRB6      30.19R
CHATTANOOGA    CLEAR     48  45  89 CALM      30.19R
CORINTH        FAIR      46  45  93 CALM      30.16S
DALTON         CLEAR     46  46 100 CALM      30.19R
GADSDEN        NOT AVBL
GOLDEN TRNGL   CLEAR     52  45  76 CALM      30.17S
HALEYVILLE     FAIR      45  44  96 CALM      30.19S
JACKSON TN     CLEAR     47  43  86 CALM      30.15R
LEWISBURG      FAIR      42  40  93 CALM      30.17R
MEMPHIS        CLEAR     54  46  74 CALM      30.14S
MURFREESBORO   FAIR      49  44  83 CALM      30.17R
NASHVILLE      PTCLDY    50  44  80 CALM      30.18R
OXFORD MS      FAIR      52  43  71 CALM      30.17R
ROME           CLEAR     49  47  93 CALM      30.18R
TUPELO         CLEAR     50  47  89 CALM      30.15S
TUSCALOOSA     CLEAR     50  46  86 CALM      30.17R
$$

...GULF COAST WEATHER...

CITY           SKY/WX    TMP DP  RH WIND       PRES   REMARKS
GULFPORT       CLEAR     61  52  72 NE3       30.10R
PASCAGOULA     CLEAR     56  53  90 E3        30.10F
MOBILE         CLEAR     58  54  86 E7        30.11F
GULF SHORES    SUNNY     57  55  91 N3        30.08F
PENSACOLA      CLEAR     59  55  87 N3        30.09S
DESTIN         PTCLDY    61  53  75 N7        30.09R
PANAMA CITY    CLOUDY    59  55  85 N7        30.06S
APPALACHICOLA  CLOUDY    61  54  77 NE8       30.05S
$$




USA.gov is the U.S. government's official web portal to all federal, state and local government web resources and services.